Rbgn^[z[y[W
メイン
   新天体発見情報
     Comet C/2022 L2 (ATLAS)
投稿するにはまず登録を

スレッド表示 | 古いものから 前のトピック | 次のトピック | 下へ
投稿者 スレッド
佐藤裕久
投稿日時: 2022-6-25 6:08
モデレータ
登録日: 2005-6-12
居住地: 日本
投稿: 2636
オンライン
Comet C/2022 L2 (ATLAS)

P. Veres (小惑星センター)の通報によると、A. Fitzsimmonsは、6月10日、ハワイ Mauna Loaにある
小惑星地球衝突最終警報システム Asteroid Terrestrial-impact Last Alert System (ATLAS)調査プ
ログラムのコースに0.5-m f/2 Schmidt反射望遠鏡で得た30秒4枚のCCD画像から彗星を発見した。
Fitzsimmonsによると、この天体のイメージは、"ソフト"で、6".0のシーイングで8"(半値全幅:FWHM)
のコマがあり、背景の天体が観測を難しくしていると述べている。
小惑星センターのPCCP webpageに公表後、佐藤英貴氏(東京都文京区, 6月11.42日UT, 120-秒露出6枚
のスタック,0.43-m f/6.8 アストログラフ, Mayhill近郊, ニューメキシコ州, 米国, 遠隔操作: 強く
集光した8" のコマが見えるが尾はなかった。5".7の円形範囲で測定した光度は18.7等であった)によっ
て彗星状と観測された。

彗星機能の報告は次のとおり、

OC   Date        Reporter           Coma    Tail    PA          Exposures
B49  2022-06-10  J. Camarasa       15".7
J95  2022-06-11  P. Birtwhistle     8"                        160x10s
H06  2022-06-11  H. Sato            8"                          6x120s
G18  2022-06-11  A. Valvasori      10"                         49x120s
Z08  2022-06-12  E. Guido           7"                         25x90s	
H06  2022-06-12  N. Paul           11".5                        5x120s
B96  2022-06-13  E. Bryssinck       8"                         20x120s

発見位置は次のとおり、

     2022 UT             R.A. (2000) Decl.       Mag.
     June 10.47539   19 29 56.35   +34 30 14.6   18.4
          10.47724   19 29 56.37   +34 30 15.3   18.3
          10.48000   19 29 56.11   +34 30 16.2   18.3
          10.48810   19 29 55.73   +34 30 17.4   18.5

MPCの双曲線軌道要素、位置推算表は次のとおり、

Orbital elements:
    C/2022 L2 (ATLAS)                                                           
Epoch 2022 Aug. 9.0 TT = JDT 2459800.5                                          
T 2024 Mar. 11.61616 TT                                 Rudenko                 
q   2.7583471            (2000.0)            P               Q                  
z  -0.0055499      Peri.  198.13216     -0.86504878     -0.13404543             
 +/-0.0031309      Node    38.70506     -0.30819196     +0.90236388             
e   1.0153086      Incl.  129.36400     -0.39586401     -0.40959889             
From 175 observations 2022 June 10-20, mean residual 0".6.                      
                                                                                
Ephemeris:
Date    TT    R. A. (2000) Decl.     Delta      r    Elong.  Phase   m1
2022 05 21    19 45 21.0 +33 07 54   6.4238  6.7182   102.6     8.5  18.8
...
2022 06 05    19 34 36.8 +34 12 35   6.1733  6.6086   111.2     8.2  18.7
...
2022 06 13    19 27 39.7 +34 37 05   6.0534  6.5500   115.2     8.1  18.6
...
2022 06 19    19 21 57.8 +34 49 44   5.9712  6.5060   117.7     7.9  18.5
2022 06 20    19 20 58.6 +34 51 19   5.9582  6.4987   118.1     7.9  18.5
2022 06 21    19 19 58.9 +34 52 45   5.9453  6.4914   118.5     7.9  18.5
...
2022 06 27    19 13 49.6 +34 57 52   5.8728  6.4474   120.4     7.8  18.4
...
2022 07 05    19 05 14.4 +34 54 59   5.7886  6.3886   122.2     7.7  18.4
...
2022 07 20    18 48 41.8 +34 17 52   5.6714  6.2783   122.7     7.8  18.2

(MPEC 2022-M18、CBET 5136)

スレッド表示 | 古いものから 前のトピック | 次のトピック | トップ

投稿するにはまず登録を
 
© 1999 Tsutomu Seki.